Location: *
(43.0167°S, 179.9000°E)
Time: 11:08:03
(UTC+00:00)

CZ-4C R/B - Pass Details

Date: 12 August 2024
Orbit: 522 x 1469 km, 63.4° (Epoch: 12 September)

Event Time Altitude Azimuth Distance (km) Brightness Sun altitude
Exits shadow 16:01:30 22° 167° (SSE) 1,654 3.9 -32.5°
Maximum altitude 16:02:43 24° 147° (SSE) 1,525 3.9 -32.2°
Drops below altitude 10° 16:06:35 10° 92° (E) 2,085 5.1 -31.5°
Sets 16:09:02 0° 77° (ENE) 2,880 5.9 -31.1°
